User: anonymous   Login
Location: *
(33.8649°S, 62.1526°E)
Time: 21:26:55
(UTC+00:00)
Language:

Spot 4 Rocket - Orbit

View from above orbital plane
View from above orbital plane
View from above satellite
View from above satellite

Ground track
Ground track

The orbit data is extracted from the following two-line orbital elements,

1 25261U 98017B   21104.48718656  .00000085  00000-0  46699-4 0  9995
2 25261  98.7335  70.0605 0002381 299.1854  60.9092 14.33902333204983
Epoch (UTC): 14 April 2021 11:41:32
Eccentricity: 0.0002381
inclination: 98.7335°
perigee height: 777 km
apogee height: 780 km
right ascension of ascending node: 70.0605°
argument of perigee: 299.1854°
revolutions per day: 14.33902333
mean anomaly at epoch: 60.9092°
orbit number at epoch: 20498

The dashed part of the orbit path shows where the satellite is in the earth's shadow,  

DLR